Tracking 19146 objects as of 24-Apr-2018
HD Live streaming from Space Station
objects crossing your sky now

FENGYUN 1C DEB

Track FENGYUN 1C DEB now!
10-day predictions


NORAD ID: 35217
Int'l Code: 1999-025DPZ
Perigee: 845.0 km
Apogee: 1,330.3 km
Inclination: 101.9 °
Period: 106.8 minutes
Semi major axis: 7458 km
RCS: 0.0015 m2 (small)
Launch date: May 10, 1999
Source: People's Republic of China (PRC)
Launch site: Taiyaun Space Center, China (TSC)

Note: This is SATELLITE DEBRIS
aabbcc
Your satellite tracking list
Your tracking list is empty




NASA's NSSDC Master Catalog

Two Line Element Set (TLE):
1 35217U 99025DPZ 18102.60176397 +.00000992 +00000-0 +12398-2 0  9999
2 35217 101.8690 160.0325 0325327 222.7594 134.7800 13.47762487234039
Source of the keplerian elements: AFSPC